Regional Weather Roundup
Issued by NWS

Home | Current Version | Previous Version | Text Only | Print | Product List | Glossary Off
Versions: 1 2 3 4 5 6 7 8 9 10 11 12 13 14 15 16 17 18 19 20 21 22 23 24 25 26 27 28 29 30 31 32 33 34 35 36 37 38 39 40 41 42 43 44 45 46 47 48 49 50

000
ASUS43 KLSX 271707
RWRMO

WEATHER SUMMARY FOR MISSOURI
NATIONAL WEATHER SERVICE SPRINGFIELD MO
1200 PM CDT MON APR 27 2015

NOTE: "FAIR" INDICATES FEW OR NO CLOUDS BELOW 12,000 FEET WITH NO
       SIGNIFICANT WEATHER AND/OR OBSTRUCTIONS TO VISIBILITY.
       CURRENT SKY AND/OR WEATHER CONDITIONS ARE NOT AVAILABLE FOR
       CHILLICOTHE AND FARMINGTON.

MOZ001>031-035>038-043-044-053-054-271800-
...NORTHERN AND WESTERN MISSOURI...

CITY           SKY/WX    TMP DP  RH WIND       PRES   REMARKS
KANSAS CTY INT PTSUNNY   59  37  44 E16       30.15F
KANSAS C DTWN  PTSUNNY   63  37  38 NE16      30.14F
LEE`S SUMMIT   PTSUNNY   60  36  40 E12       30.15F
ST JOSEPH      PTSUNNY   62  35  36 NE16      30.17F
CHILLICOTHE      N/A     64  37  36 NE7       30.18F
KIRKSVILLE     SUNNY     64  36  35 N9G16     30.17F

$$
MOZ066>068-077>081-088>096-101>105-271800-
...SOUTHWEST MISSOURI...

CITY           SKY/WX    TMP DP  RH WIND       PRES   REMARKS
SPRINGFIELD    SUNNY     60  33  36 E13G22    30.05F
JOPLIN         MOSUNNY   61  34  36 E18G31    30.01F

$$
MOZ032>034-039>042-045>050-055>058-069>072-271800-
...CENTRAL MISSOURI...

CITY           SKY/WX    TMP DP  RH WIND       PRES   REMARKS
COLUMBIA       MOSUNNY   59  36  42 NE15      30.15F
JEFFERSON CITY MOSUNNY   59  32  36 NE12G20   30.16S
ROLLA          MOSUNNY   59  36  42 NE9       30.11F
SEDALIA        MOSUNNY   59  39  47 NE9       30.15F
WHITEMAN AFB   PTSUNNY   60  39  44 E10G18    30.12F
WARRENSBURG    PTSUNNY   59  36  41 NE13      30.14F
OSAGE BEACH    SUNNY     61  36  39 NE13G18   30.13F

$$
MOZ051-052-059>065-271800-
...EAST CENTRAL MISSOURI...

CITY           SKY/WX    TMP DP  RH WIND       PRES   REMARKS
ST LOUIS INTL  PTSUNNY   60  35  39 N10       30.15F
SPIRIT OF STL  PTSUNNY   59  34  39 N7        30.14F
ST CHARLES     PTSUNNY   60  37  42 N13       30.14F

$$
MOZ072>076-082>087-097>100-106>115-271800-
...SOUTH CENTRAL AND SOUTHEAST MISSOURI...

CITY           SKY/WX    TMP DP  RH WIND       PRES   REMARKS
CAPE GIRARDEAU PTSUNNY   60  36  40 NE16      30.07F
FARMINGTON     CLOUDY    57  37  47 NE15G21   30.14F
POPLAR BLUFF   CLOUDY    59  35  40 NE16G26   30.06F
WEST PLAINS    SUNNY     58  34  40 NE12G21   30.09S

$$


USA.gov is the U.S. government's official web portal to all federal, state and local government web resources and services.